TimeMDT,TemperatureF,Dew PointF,Humidity,Sea Level PressureIn,VisibilityMPH,Wind Direction,Wind SpeedMPH,Gust SpeedMPH,PrecipitationIn,Events,Conditions,WindDirDegrees,DateUTC
12:56 AM,36.0,32.0,86,29.76,-9999.0,ENE,9.2,-,N/A,,Unknown,70,2013-03-22 06:56:00
1:56 AM,33.1,30.9,92,29.76,-9999.0,NE,5.8,-,N/A,,Unknown,50,2013-03-22 07:56:00
2:56 AM,30.9,30.0,96,29.77,-9999.0,NNW,8.1,-,N/A,,Unknown,340,2013-03-22 08:56:00
3:56 AM,30.9,30.0,96,29.76,-9999.0,North,8.1,-,N/A,,Unknown,10,2013-03-22 09:56:00
4:56 AM,30.9,30.0,96,29.77,-9999.0,North,12.7,-,N/A,,Unknown,350,2013-03-22 10:56:00
5:56 AM,30.9,30.0,96,29.80,-9999.0,NNW,10.4,-,N/A,,Unknown,340,2013-03-22 11:56:00
6:56 AM,28.0,27.0,96,29.83,-9999.0,NNW,6.9,-,N/A,,Unknown,330,2013-03-22 12:56:00
7:56 AM,30.0,28.0,92,29.84,-9999.0,NNE,12.7,-,N/A,,Unknown,30,2013-03-22 13:56:00
8:56 AM,32.0,32.0,100,29.86,-9999.0,NNE,10.4,-,N/A,,Unknown,20,2013-03-22 14:56:00
9:56 AM,37.9,30.9,76,29.86,-9999.0,North,5.8,-,N/A,,Unknown,10,2013-03-22 15:56:00
10:56 AM,42.1,26.1,53,29.85,-9999.0,Calm,Calm,-,N/A,,Unknown,0,2013-03-22 16:56:00
11:56 AM,46.9,27.0,46,29.82,-9999.0,Calm,Calm,-,N/A,,Unknown,0,2013-03-22 17:56:00
12:56 PM,48.0,23.0,37,29.78,-9999.0,Variable,3.5,-,N/A,,Unknown,0,2013-03-22 18:56:00
1:56 PM,53.1,19.9,27,29.72,-9999.0,SSW,16.1,23.0,N/A,,Unknown,200,2013-03-22 19:56:00
2:56 PM,52.0,19.0,27,29.70,-9999.0,South,13.8,21.9,N/A,,Unknown,170,2013-03-22 20:56:00
3:56 PM,53.1,21.0,29,29.68,-9999.0,South,16.1,24.2,N/A,,Unknown,170,2013-03-22 21:56:00
4:56 PM,54.0,24.1,31,29.65,-9999.0,SSW,20.7,26.5,N/A,,Unknown,200,2013-03-22 22:56:00
5:56 PM,53.1,26.1,35,29.63,-9999.0,South,21.9,28.8,N/A,,Unknown,190,2013-03-22 23:56:00
6:56 PM,50.0,26.1,39,29.63,-9999.0,SSW,23.0,28.8,N/A,,Unknown,200,2013-03-23 00:56:00
7:56 PM,46.9,27.0,46,29.63,-9999.0,South,19.6,-,N/A,,Unknown,190,2013-03-23 01:56:00
8:56 PM,41.0,27.0,57,29.66,-9999.0,SSE,11.5,-,N/A,,Unknown,160,2013-03-23 02:56:00
9:56 PM,43.0,28.0,56,29.62,-9999.0,South,23.0,-,N/A,,Unknown,180,2013-03-23 03:56:00
10:56 PM,39.9,28.9,65,29.62,-9999.0,South,18.4,-,N/A,,Unknown,180,2013-03-23 04:56:00
11:56 PM,39.0,28.9,67,29.59,-9999.0,South,17.3,-,N/A,,Unknown,190,2013-03-23 05:56:00